Zurück zum Katalog

STARLINK-31167

AktivKommunikationVLEO
NORAD 58744·PAYLOAD·🇺🇸 United States

Gestartet Jan 7, 2024 von Cape Canaveral Space Force Station

Loading…

Nächste Überflüge (nächste 24 Stunden)

TLE

AktuellSource: CelesTrak SupGP

Epoche: Sep 14, 2026, 21:15 UTC

1 58744C 24005S   26257.88590278  .00006954  00000+0  25190-3 0  2578
2 58744  43.0035  85.8297 0001473 273.9312 267.0864 15.27572481    12

Verfolge STARLINK-31167 in Echtzeit mit AllMySat

Download on the App Store